Change the Weather History Date:

Sunday, March 2, 2014

  Actual Average Record
Temperature  
Mean Temperature 17 °F 33 °F  
Max Temperature 21 °F 42 °F 69 °F (1992)
Min Temperature 13 °F 24 °F -7 °F (1980)
Degree Days  
Heating Degree Days 48 32  
Month to date heating degree days 85 64  
Since 1 July heating degree days 5338 4662  
Cooling Degree Days 0 0  
Month to date cooling degree days 0 0  
Year to date cooling degree days 0 0  
Moisture  
Dew Point 12 °F    
Average Humidity 80    
Maximum Humidity 92    
Minimum Humidity 67    
Precipitation  
Precipitation 0.30 in 0.07 in 0.72 in (1940)
Month to date precipitation 0.33 0.15  
Year to date precipitation 6.41 4.45  
Snow  
Snow 4.00 in 0.20 in 4.00 in (2014)
Month to date snowfall 4.2 0.4  
Since 1 July snowfall 64.6 28.8  
Snow Depth 3.00 in    
Sea Level Pressure  
Sea Level Pressure 30.27 in    
Wind  
Wind Speed 7 mph (NNE)    
Max Wind Speed 15 mph    
Max Gust Speed 16 mph    
Visibility 4 miles    
Events Fog , Snow    
T = Trace of Precipitation, MM = Missing Value Source: NWS Daily Summary

Daily Weather History Graph

Daily Weather History Graph

Search for Another Location

Airport or City:

Trip Planner

Search our weather history database for the weather conditions in past years. The results will help you decide how hot, cold, wet, or windy it might be!

Date:

Astronomy

Mar. 02, 2014 Rise Set
Actual Time 7:13 AM EST 6:32 PM EST
Civil Twilight 6:45 AM EST 7:00 PM EST
Nautical Twilight 6:14 AM EST 7:32 PM EST
Astronomical Twilight 5:42 AM EST 8:04 PM EST
Moon 7:43 AM EST (3/2) 8:29 PM EST (3/2)
Length of Visible Light 12h 14m
Length of Day
11h 19m
Waxing Crescent, 3% of the Moon is Illuminated
Mar 2
Waxing Crescent
Mar 8
First Quarter
Mar 16
Full
Mar 23
Last Quarter
Mar 30
New

Hourly Weather History & Observations

Time (EST) Temp. Windchill Dew Point Humidity Pressure Visibility Wind Dir Wind Speed Gust Speed Precip Events Conditions
12:09 AM 21.2 °F 11.7 °F 17.6 °F 86% 30.23 in 1.5 mi North 8.1 mph - 0.00 in Snow Light Snow
12:32 AM 19.4 °F 8.6 °F 17.6 °F 93% 30.22 in 2.5 mi North 9.2 mph - 0.01 in Snow Light Snow
12:54 AM 19.9 °F 12.1 °F 17.1 °F 89% 30.26 in 3.0 mi North 5.8 mph - 0.02 in Snow Light Snow
1:07 AM 19.4 °F 10.4 °F 17.6 °F 93% 30.21 in 1.8 mi North 6.9 mph - 0.00 in Snow Light Snow
1:28 AM 19.4 °F 9.5 °F 15.8 °F 86% 30.22 in 2.5 mi NNW 8.1 mph - 0.00 in Snow Light Snow
1:39 AM 19.4 °F 9.5 °F 15.8 °F 86% 30.22 in 5.0 mi North 8.1 mph - 0.00 in Snow Light Snow
1:54 AM 19.9 °F 8.6 °F 16.0 °F 85% 30.27 in 9.0 mi NNW 10.4 mph - 0.00 in Snow Light Snow
2:14 AM 19.4 °F 7.9 °F 15.8 °F 86% 30.25 in 2.0 mi NNW 10.4 mph - 0.01 in Snow Light Snow
2:26 AM 19.4 °F 8.6 °F 15.8 °F 86% 30.25 in 1.0 mi NNW 9.2 mph - 0.01 in Snow Light Snow
2:38 AM 19.4 °F 8.6 °F 15.8 °F 86% 30.25 in 1.0 mi NNW 9.2 mph - 0.03 in Snow Light Snow
2:54 AM 18.0 °F 6.1 °F 15.1 °F 88% 30.27 in 1.0 mi North 10.4 mph - 0.04 in Snow Light Snow
3:07 AM 17.6 °F 6.4 °F 15.8 °F 93% 30.23 in 1.5 mi North 9.2 mph - 0.01 in Snow Light Snow
3:54 AM 18.0 °F 6.1 °F 14.0 °F 84% 30.25 in 1.2 mi North 10.4 mph - 0.02 in Snow Light Snow
4:34 AM 17.6 °F 5.7 °F 12.2 °F 79% 30.24 in 1.0 mi NNW 10.4 mph - 0.03 in Snow Light Snow
4:45 AM 15.8 °F 3.4 °F 12.2 °F 86% 30.23 in 1.0 mi North 10.4 mph - 0.05 in Snow Light Snow
4:54 AM 16.0 °F 2.9 °F 12.9 °F 88% 30.26 in 1.0 mi North 11.5 mph - 0.05 in Snow Light Snow
5:54 AM 15.1 °F 4.2 °F 12.0 °F 88% 30.29 in 1.0 mi North 8.1 mph - 0.06 in Snow Light Snow
6:40 AM 15.8 °F 5.1 °F 12.2 °F 86% 30.24 in 1.5 mi North 8.1 mph - 0.03 in Snow Light Snow
6:54 AM 15.1 °F 6.4 °F 12.0 °F 88% 30.28 in 1.5 mi NNE 5.8 mph - 0.03 in Snow Light Snow
7:19 AM 15.8 °F 3.4 °F 12.2 °F 86% 30.24 in 0.5 mi North 10.4 mph - 0.02 in Fog , Snow Snow
7:36 AM 15.8 °F 3.4 °F 12.2 °F 86% 30.23 in 0.8 mi NNE 10.4 mph - 0.04 in Snow Light Snow
7:46 AM 15.8 °F 3.4 °F 10.4 °F 79% 30.23 in 1.0 mi NNE 10.4 mph - 0.04 in Snow Light Snow
7:54 AM 15.1 °F 4.2 °F 12.0 °F 88% 30.27 in 1.5 mi NNE 8.1 mph - 0.05 in Snow Light Snow
8:54 AM 16.0 °F 6.3 °F 10.9 °F 81% 30.29 in 1.0 mi NNE 6.9 mph - 0.01 in Snow Light Snow
9:54 AM 17.1 °F 5.8 °F 10.9 °F 77% 30.31 in 1.8 mi NE 9.2 mph - 0.01 in Snow Light Snow
10:12 AM 17.6 °F 5.7 °F 10.4 °F 73% 30.27 in 2.5 mi NE 10.4 mph - 0.01 in Snow Light Snow
10:35 AM 15.8 °F 2.7 °F 10.4 °F 79% 30.27 in 3.0 mi NE 11.5 mph - 0.01 in Snow Light Snow
10:54 AM 16.0 °F 2.9 °F 10.0 °F 77% 30.31 in 3.0 mi NE 11.5 mph - 0.01 in Snow Light Snow
11:54 AM 17.1 °F 7.6 °F 10.0 °F 74% 30.32 in 5.0 mi East 6.9 mph - 0.00 in Snow Light Snow
12:16 PM 17.6 °F 6.4 °F 10.4 °F 73% 30.27 in 1.5 mi ENE 9.2 mph - 0.00 in Snow Light Snow
12:39 PM 17.6 °F 6.4 °F 10.4 °F 73% 30.27 in 3.0 mi ENE 9.2 mph - 0.00 in Snow Light Snow
12:54 PM 17.1 °F 8.7 °F 10.0 °F 74% 30.31 in 3.0 mi East 5.8 mph - 0.00 in Snow Light Snow
1:39 PM 17.6 °F 8.2 °F 10.4 °F 73% 30.25 in 2.5 mi ENE 6.9 mph - 0.00 in Snow Light Snow
1:54 PM 17.1 °F 10.0 °F 10.0 °F 74% 30.30 in 6.0 mi East 4.6 mph - 0.00 in Snow Light Snow
2:54 PM 19.0 °F 9.0 °F 10.9 °F 71% 30.29 in 3.0 mi North 8.1 mph - 0.00 in Snow Light Snow
3:54 PM 18.0 °F 9.8 °F 10.0 °F 71% 30.29 in 10.0 mi East 5.8 mph - 0.00 in   Overcast
4:54 PM 17.1 °F 11.7 °F 9.0 °F 71% 30.31 in 10.0 mi SSE 3.5 mph - N/A   Overcast
5:54 PM 16.0 °F 7.4 °F 8.1 °F 71% 30.29 in 10.0 mi East 5.8 mph - N/A   Overcast
6:30 PM 15.8 °F 8.6 °F 6.8 °F 68% 30.25 in 10.0 mi ESE 4.6 mph - N/A   Overcast
6:54 PM 15.1 °F 9.4 °F 7.0 °F 70% 30.31 in 10.0 mi East 3.5 mph - N/A   Overcast
7:54 PM 15.1 °F 9.4 °F 7.0 °F 70% 30.31 in 10.0 mi ESE 3.5 mph - N/A   Overcast
8:54 PM 15.1 °F - 7.0 °F 70% 30.33 in 10.0 mi Calm Calm - N/A   Overcast
9:32 PM 14.0 °F 8.2 °F 6.8 °F 73% 30.27 in 10.0 mi NW 3.5 mph - N/A   Overcast
9:54 PM 14.0 °F - 7.0 °F 74% 30.32 in 10.0 mi Calm Calm - N/A   Overcast
10:54 PM 14.0 °F 2.0 °F 9.0 °F 80% 30.35 in 5.0 mi NNW 9.2 mph - 0.00 in Snow Light Snow
11:54 PM 14.0 °F 1.2 °F 8.1 °F 77% 30.36 in 7.0 mi NNE 10.4 mph - 0.00 in Snow Light Snow